Year,Month,Day,Hour,Minute,Value (Times are PST for temperature in C)
2018,08,08,00,01,21.70
2018,08,08,00,03,21.70
2018,08,08,00,04,21.60
2018,08,08,00,06,21.60
2018,08,08,00,07,21.50
2018,08,08,00,09,21.50
2018,08,08,00,11,21.40
2018,08,08,00,12,21.40
2018,08,08,00,13,21.40
2018,08,08,00,14,21.40
2018,08,08,00,15,21.40
2018,08,08,00,16,21.30
2018,08,08,00,18,21.30
2018,08,08,00,20,21.20
2018,08,08,00,22,21.20
2018,08,08,00,23,21.20
2018,08,08,00,24,21.20
2018,08,08,00,25,21.20
2018,08,08,00,26,21.10
2018,08,08,00,27,21.10
2018,08,08,00,28,21.10
2018,08,08,00,29,21.10
2018,08,08,00,31,21.10
2018,08,08,00,32,21.00
2018,08,08,00,33,21.00
2018,08,08,00,35,20.90
2018,08,08,00,36,20.90
2018,08,08,00,38,20.90
2018,08,08,00,39,20.90
2018,08,08,00,41,20.80
2018,08,08,00,43,20.80
2018,08,08,00,44,20.70
2018,08,08,00,45,20.70
2018,08,08,00,46,20.70
2018,08,08,00,47,20.60
2018,08,08,00,48,20.60
2018,08,08,00,49,20.60
2018,08,08,00,50,20.60
2018,08,08,00,51,20.50
2018,08,08,00,52,20.50
2018,08,08,00,54,20.40
2018,08,08,00,55,20.40
2018,08,08,00,56,20.40
2018,08,08,00,58,20.30
2018,08,08,00,59,20.30
2018,08,08,01,00,20.30
2018,08,08,01,01,20.30
2018,08,08,01,03,20.30
2018,08,08,01,05,20.20
2018,08,08,01,06,20.20
2018,08,08,01,07,20.20
2018,08,08,01,08,20.20
2018,08,08,01,10,20.10
2018,08,08,01,12,20.10
2018,08,08,01,14,19.90
2018,08,08,01,16,19.90
2018,08,08,01,18,19.80
2018,08,08,01,19,19.80
2018,08,08,01,20,19.80
2018,08,08,01,21,19.70
2018,08,08,01,22,19.70
2018,08,08,01,23,19.70
2018,08,08,01,25,19.70
2018,08,08,01,27,19.70
2018,08,08,01,28,19.60
2018,08,08,01,29,19.60
2018,08,08,01,30,19.60
2018,08,08,01,31,19.60
2018,08,08,01,32,19.60
2018,08,08,01,33,19.60
2018,08,08,01,34,19.60
2018,08,08,01,35,19.60
2018,08,08,01,36,19.60
2018,08,08,01,37,19.60
2018,08,08,01,38,19.60
2018,08,08,01,39,19.60
2018,08,08,01,40,19.50
2018,08,08,01,41,19.50
2018,08,08,01,42,19.50
2018,08,08,01,43,19.50
2018,08,08,01,45,19.40
2018,08,08,01,46,19.40
2018,08,08,01,47,19.40
2018,08,08,01,48,19.40
2018,08,08,01,50,19.40
2018,08,08,01,51,19.30
2018,08,08,01,52,19.30
2018,08,08,01,55,19.30
2018,08,08,01,57,19.30
2018,08,08,01,58,19.20
2018,08,08,01,59,19.20
2018,08,08,02,00,19.20
2018,08,08,02,02,19.20
2018,08,08,02,03,19.20
2018,08,08,02,04,19.20
2018,08,08,02,05,19.20
2018,08,08,02,06,19.20
2018,08,08,02,07,19.10
2018,08,08,02,08,19.10
2018,08,08,02,09,19.10
2018,08,08,02,10,19.10
2018,08,08,02,12,19.10
2018,08,08,02,13,19.10
2018,08,08,02,14,19.10
2018,08,08,02,15,19.00
2018,08,08,02,16,19.00
2018,08,08,02,18,19.00
2018,08,08,02,19,19.00
2018,08,08,02,20,19.00
2018,08,08,02,21,18.90
2018,08,08,02,23,18.90
2018,08,08,02,24,18.90
2018,08,08,02,25,18.90
2018,08,08,02,27,18.90
2018,08,08,02,29,18.80
2018,08,08,02,31,18.80
2018,08,08,02,32,18.80
2018,08,08,02,33,18.80
2018,08,08,02,34,18.80
2018,08,08,02,35,18.70
2018,08,08,02,36,18.70
2018,08,08,02,38,18.70
2018,08,08,02,39,18.70
2018,08,08,02,40,18.60
2018,08,08,02,41,18.60
2018,08,08,02,43,18.60
2018,08,08,02,44,18.60
2018,08,08,02,45,18.60
2018,08,08,02,46,18.50
2018,08,08,02,47,18.50
2018,08,08,02,48,18.50
2018,08,08,02,49,18.40
2018,08,08,02,51,18.40
2018,08,08,02,52,18.40
2018,08,08,02,53,18.40
2018,08,08,02,54,18.40
2018,08,08,02,55,18.40
2018,08,08,02,56,18.30
2018,08,08,02,58,18.30
2018,08,08,02,59,18.30
2018,08,08,03,00,18.30
2018,08,08,03,02,18.20
2018,08,08,03,03,18.20
2018,08,08,03,04,18.20
2018,08,08,03,05,18.20
2018,08,08,03,06,18.20
2018,08,08,03,08,18.20
2018,08,08,03,10,18.20
2018,08,08,03,12,18.10
2018,08,08,03,13,18.10
2018,08,08,03,15,18.10
2018,08,08,03,16,18.10
2018,08,08,03,17,18.10
2018,08,08,03,18,18.00
2018,08,08,03,19,18.00
2018,08,08,03,20,18.00
2018,08,08,03,21,18.00
2018,08,08,03,22,17.90
2018,08,08,03,23,17.90
2018,08,08,03,24,17.90
2018,08,08,03,25,17.90
2018,08,08,03,26,17.90
2018,08,08,03,27,17.90
2018,08,08,03,28,17.90
2018,08,08,03,29,17.80
2018,08,08,03,30,17.80
2018,08,08,03,31,17.80
2018,08,08,03,33,17.80
2018,08,08,03,34,17.80
2018,08,08,03,36,17.80
2018,08,08,03,38,17.80
2018,08,08,03,39,17.80
2018,08,08,03,40,17.80
2018,08,08,03,41,17.80
2018,08,08,03,42,17.80
2018,08,08,03,44,17.80
2018,08,08,03,46,17.80
2018,08,08,03,47,17.80
2018,08,08,03,48,17.70
2018,08,08,03,49,17.70
2018,08,08,03,51,17.70
2018,08,08,03,52,17.70
2018,08,08,03,53,17.70
2018,08,08,03,54,17.70
2018,08,08,03,55,17.70
2018,08,08,03,56,17.70
2018,08,08,03,57,17.70
2018,08,08,03,58,17.60
2018,08,08,03,59,17.60
2018,08,08,04,00,17.60
2018,08,08,04,01,17.60
2018,08,08,04,02,17.60
2018,08,08,04,03,17.50
2018,08,08,04,05,17.50
2018,08,08,04,07,17.40
2018,08,08,04,08,17.40
2018,08,08,04,09,17.40
2018,08,08,04,10,17.40
2018,08,08,04,11,17.40
2018,08,08,04,12,17.40
2018,08,08,04,13,17.30
2018,08,08,04,14,17.30
2018,08,08,04,15,17.30
2018,08,08,04,16,17.30
2018,08,08,04,17,17.30
2018,08,08,04,18,17.30
2018,08,08,04,20,17.30
2018,08,08,04,21,17.30
2018,08,08,04,22,17.30
2018,08,08,04,24,17.30
2018,08,08,04,26,17.30
2018,08,08,04,27,17.30
2018,08,08,04,28,17.30
2018,08,08,04,29,17.30
2018,08,08,04,30,17.30
2018,08,08,04,32,17.30
2018,08,08,04,33,17.30
2018,08,08,04,35,17.20
2018,08,08,04,36,17.20
2018,08,08,04,37,17.20
2018,08,08,04,38,17.20
2018,08,08,04,39,17.20
2018,08,08,04,40,17.20
2018,08,08,04,41,17.20
2018,08,08,04,43,17.20
2018,08,08,04,44,17.20
2018,08,08,04,45,17.20
2018,08,08,04,46,17.10
2018,08,08,04,48,17.10
2018,08,08,04,50,17.10
2018,08,08,04,52,17.10
2018,08,08,04,54,16.90
2018,08,08,04,55,16.90
2018,08,08,04,56,16.90
2018,08,08,04,57,16.90
2018,08,08,04,58,16.90
2018,08,08,05,00,16.80
2018,08,08,05,01,16.80
2018,08,08,05,02,16.80
2018,08,08,05,03,16.70
2018,08,08,05,04,16.70
2018,08,08,05,05,16.70
2018,08,08,05,07,16.60
2018,08,08,05,08,16.60
2018,08,08,05,09,16.60
2018,08,08,05,11,16.50
2018,08,08,05,13,16.50
2018,08,08,05,15,16.40
2018,08,08,05,16,16.40
2018,08,08,05,17,16.40
2018,08,08,05,18,16.40
2018,08,08,05,19,16.40
2018,08,08,05,20,16.40
2018,08,08,05,21,16.40
2018,08,08,05,23,16.40
2018,08,08,05,24,16.40
2018,08,08,05,25,16.40
2018,08,08,05,26,16.40
2018,08,08,05,27,16.40
2018,08,08,05,28,16.40
2018,08,08,05,29,16.40
2018,08,08,05,30,16.40
2018,08,08,05,31,16.30
2018,08,08,05,32,16.30
2018,08,08,05,33,16.30
2018,08,08,05,34,16.30
2018,08,08,05,35,16.30
2018,08,08,05,36,16.30
2018,08,08,05,38,16.30
2018,08,08,05,39,16.30
2018,08,08,05,40,16.30
2018,08,08,05,42,16.30
2018,08,08,05,43,16.30
2018,08,08,05,44,16.30
2018,08,08,05,45,16.30
2018,08,08,05,46,16.30
2018,08,08,05,47,16.30
2018,08,08,05,48,16.20
2018,08,08,05,49,16.20
2018,08,08,05,50,16.20
2018,08,08,05,51,16.20
2018,08,08,05,52,16.20
2018,08,08,05,53,16.20
2018,08,08,05,54,16.20
2018,08,08,05,56,16.20
2018,08,08,05,57,16.10
2018,08,08,05,58,16.10
2018,08,08,06,00,16.10
2018,08,08,06,01,16.10
2018,08,08,06,02,16.10
2018,08,08,06,04,16.00
2018,08,08,06,05,16.00
2018,08,08,06,06,16.00
2018,08,08,06,07,16.00
2018,08,08,06,08,16.00
2018,08,08,06,10,16.00
2018,08,08,06,12,16.10
2018,08,08,06,13,16.10
2018,08,08,06,14,16.10
2018,08,08,06,16,16.10
2018,08,08,06,17,16.10
2018,08,08,06,18,16.10
2018,08,08,06,20,16.10
2018,08,08,06,21,16.10
2018,08,08,06,23,16.10
2018,08,08,06,25,16.20
2018,08,08,06,27,16.10
2018,08,08,06,28,16.10
2018,08,08,06,29,16.20
2018,08,08,06,30,16.10
2018,08,08,06,32,16.10
2018,08,08,06,34,16.10
2018,08,08,06,35,16.10
2018,08,08,06,36,16.10
2018,08,08,06,37,16.10
2018,08,08,06,38,16.10
2018,08,08,06,39,16.10
2018,08,08,06,40,16.10
2018,08,08,06,41,16.10
2018,08,08,06,42,16.10
2018,08,08,06,43,16.10
2018,08,08,06,44,16.10
2018,08,08,06,45,16.10
2018,08,08,06,47,16.10
2018,08,08,06,48,16.10
2018,08,08,06,49,16.20
2018,08,08,06,50,16.20
2018,08,08,06,51,16.20
2018,08,08,06,52,16.20
2018,08,08,06,53,16.30
2018,08,08,06,54,16.30
2018,08,08,06,55,16.40
2018,08,08,06,56,16.40
2018,08,08,06,58,16.60
2018,08,08,06,59,16.70
2018,08,08,07,00,16.80
2018,08,08,07,02,16.90
2018,08,08,07,03,16.90
2018,08,08,07,05,17.00
2018,08,08,07,06,17.10
2018,08,08,07,07,17.10
2018,08,08,07,09,17.10
2018,08,08,07,10,17.10
2018,08,08,07,11,17.10
2018,08,08,07,12,17.10
2018,08,08,07,13,17.20
2018,08,08,07,14,17.20
2018,08,08,07,15,17.20
2018,08,08,07,16,17.20
2018,08,08,07,17,17.20
2018,08,08,07,18,17.20
2018,08,08,07,19,17.30
2018,08,08,07,21,17.30
2018,08,08,07,23,17.30
2018,08,08,07,24,17.30
2018,08,08,07,25,17.30
2018,08,08,07,26,17.30
2018,08,08,07,27,17.30
2018,08,08,07,29,17.30
2018,08,08,07,30,17.30
2018,08,08,07,31,17.30
2018,08,08,07,32,17.40
2018,08,08,07,33,17.40
2018,08,08,07,34,17.40
2018,08,08,07,35,17.40
2018,08,08,07,36,17.50
2018,08,08,07,37,17.60
2018,08,08,07,39,17.60
2018,08,08,07,40,17.60
2018,08,08,07,41,17.70
2018,08,08,07,42,17.70
2018,08,08,07,44,17.80
2018,08,08,07,45,17.80
2018,08,08,07,46,17.90
2018,08,08,07,47,17.90
2018,08,08,07,49,18.10
2018,08,08,07,50,18.20
2018,08,08,07,51,18.30
2018,08,08,07,52,18.40
2018,08,08,07,53,18.50
2018,08,08,07,54,18.60
2018,08,08,07,55,18.70
2018,08,08,07,56,18.80
2018,08,08,07,57,19.00
2018,08,08,07,58,19.10
2018,08,08,08,00,19.20
2018,08,08,08,01,19.30
2018,08,08,08,02,19.30
2018,08,08,08,03,19.40
2018,08,08,08,05,19.60
2018,08,08,08,06,19.70
2018,08,08,08,07,19.70
2018,08,08,08,08,19.80
2018,08,08,08,09,19.80
2018,08,08,08,10,19.90
2018,08,08,08,11,20.00
2018,08,08,08,12,20.10
2018,08,08,08,13,20.10
2018,08,08,08,14,20.10
2018,08,08,08,15,20.20
2018,08,08,08,16,20.20
2018,08,08,08,17,20.30
2018,08,08,08,18,20.30
2018,08,08,08,19,20.30
2018,08,08,08,20,20.40
2018,08,08,08,21,20.40
2018,08,08,08,23,20.50
2018,08,08,08,25,20.70
2018,08,08,08,26,20.70
2018,08,08,08,27,20.80
2018,08,08,08,28,20.80
2018,08,08,08,29,20.90
2018,08,08,08,30,21.10
2018,08,08,08,32,21.20
2018,08,08,08,33,21.20
2018,08,08,08,34,21.20
2018,08,08,08,35,21.20
2018,08,08,08,37,21.20
2018,08,08,08,38,21.10
2018,08,08,08,39,21.10
2018,08,08,08,40,21.10
2018,08,08,08,41,21.10
2018,08,08,08,42,21.10
2018,08,08,08,43,21.10
2018,08,08,08,45,21.10
2018,08,08,08,47,21.10
2018,08,08,08,48,21.10
2018,08,08,08,49,21.10
2018,08,08,08,50,21.20
2018,08,08,08,52,21.30
2018,08,08,08,53,21.30
2018,08,08,08,55,21.40
2018,08,08,08,56,21.50
2018,08,08,08,57,21.60
2018,08,08,08,58,21.70
2018,08,08,09,00,21.80
2018,08,08,09,01,21.90
2018,08,08,09,03,22.10
2018,08,08,09,04,22.20
2018,08,08,09,05,22.20
2018,08,08,09,06,22.20
2018,08,08,09,07,22.30
2018,08,08,09,08,22.30
2018,08,08,09,09,22.40
2018,08,08,09,11,22.40
2018,08,08,09,12,22.50
2018,08,08,09,13,22.60
2018,08,08,09,14,22.60
2018,08,08,09,16,22.70
2018,08,08,09,17,22.80
2018,08,08,09,18,22.90
2018,08,08,09,19,22.90
2018,08,08,09,21,23.10
2018,08,08,09,22,23.20
2018,08,08,09,24,23.30
2018,08,08,09,25,23.30
2018,08,08,09,27,23.40
2018,08,08,09,28,23.60
2018,08,08,09,29,23.70
2018,08,08,09,30,23.80
2018,08,08,09,32,23.90
2018,08,08,09,33,24.00
2018,08,08,09,35,24.10
2018,08,08,09,36,24.10
2018,08,08,09,38,24.10
2018,08,08,09,39,24.10
2018,08,08,09,40,24.10
2018,08,08,09,41,24.00
2018,08,08,09,43,24.10
2018,08,08,09,44,24.10
2018,08,08,09,45,24.10
2018,08,08,09,46,24.20
2018,08,08,09,47,24.20
2018,08,08,09,48,24.20
2018,08,08,09,50,24.30
2018,08,08,09,51,24.30
2018,08,08,09,52,24.40
2018,08,08,09,53,24.40
2018,08,08,09,54,24.60
2018,08,08,09,55,24.60
2018,08,08,09,57,24.80
2018,08,08,09,58,24.80
2018,08,08,10,00,24.90
2018,08,08,10,01,25.00
2018,08,08,10,03,25.10
2018,08,08,10,04,25.20
2018,08,08,10,05,25.30
2018,08,08,10,06,25.40
2018,08,08,10,08,25.50
2018,08,08,10,09,25.50
2018,08,08,10,11,25.60
2018,08,08,10,12,25.60
2018,08,08,10,13,25.70
2018,08,08,10,15,25.80
2018,08,08,10,17,26.00
2018,08,08,10,19,26.20
2018,08,08,10,20,26.20
2018,08,08,10,21,26.30
2018,08,08,10,22,26.30
2018,08,08,10,24,26.50
2018,08,08,10,25,26.60
2018,08,08,10,26,26.60
2018,08,08,10,27,26.70
2018,08,08,10,28,26.70
2018,08,08,10,29,26.70
2018,08,08,10,30,26.70
2018,08,08,10,32,26.80
2018,08,08,10,34,26.80
2018,08,08,10,35,26.80
2018,08,08,10,37,26.70
2018,08,08,10,38,26.70
2018,08,08,10,39,26.70
2018,08,08,10,41,26.70
2018,08,08,10,42,26.70
2018,08,08,10,43,26.70
2018,08,08,10,44,26.80
2018,08,08,10,46,26.80
2018,08,08,10,47,26.80
2018,08,08,10,49,26.90
2018,08,08,10,50,27.10
2018,08,08,10,52,27.10
2018,08,08,10,53,27.10
2018,08,08,10,55,27.10
2018,08,08,10,57,27.10
2018,08,08,10,59,27.00
2018,08,08,11,00,27.10
2018,08,08,11,01,27.10
2018,08,08,11,03,27.20
2018,08,08,11,05,27.30
2018,08,08,11,06,27.30
2018,08,08,11,07,27.40
2018,08,08,11,08,27.50
2018,08,08,11,09,27.60
2018,08,08,11,11,27.70
2018,08,08,11,13,27.80
2018,08,08,11,15,28.00
2018,08,08,11,16,28.20
2018,08,08,11,17,28.30
2018,08,08,11,20,28.60
2018,08,08,11,21,28.60
2018,08,08,11,22,28.70
2018,08,08,11,23,28.70
2018,08,08,11,25,28.70
2018,08,08,11,27,28.70
2018,08,08,11,28,28.70
2018,08,08,11,30,28.70
2018,08,08,11,31,28.60
2018,08,08,11,32,28.60
2018,08,08,11,33,28.70
2018,08,08,11,34,28.70
2018,08,08,11,35,28.70
2018,08,08,11,37,28.90
2018,08,08,11,38,28.90
2018,08,08,11,39,29.10
2018,08,08,11,41,29.20
2018,08,08,11,44,29.30
2018,08,08,11,46,29.40
2018,08,08,11,47,29.50
2018,08,08,11,48,29.70
2018,08,08,11,50,29.70
2018,08,08,11,51,29.80
2018,08,08,11,53,29.90
2018,08,08,11,54,30.00
2018,08,08,11,56,30.00
2018,08,08,11,59,30.10
2018,08,08,12,00,30.10
2018,08,08,12,01,30.20
2018,08,08,12,02,30.30
2018,08,08,12,05,30.50
2018,08,08,12,07,30.60
2018,08,08,12,08,30.70
2018,08,08,12,09,30.80
2018,08,08,12,11,30.80
2018,08,08,12,14,30.80
2018,08,08,12,15,30.90
2018,08,08,12,17,30.90
2018,08,08,12,18,30.90
2018,08,08,12,20,31.10
2018,08,08,12,21,31.20
2018,08,08,12,24,31.30
2018,08,08,12,25,31.30
2018,08,08,12,27,31.50
2018,08,08,12,29,31.60
2018,08,08,12,31,31.60
2018,08,08,12,32,31.60
2018,08,08,12,34,31.70
2018,08,08,12,35,31.80
2018,08,08,12,37,31.90
2018,08,08,12,38,31.90
2018,08,08,12,40,32.10
2018,08,08,12,41,32.20
2018,08,08,12,43,32.20
2018,08,08,12,44,32.30
2018,08,08,12,46,32.30
2018,08,08,12,49,32.40
2018,08,08,12,52,32.50
2018,08,08,12,54,32.60
2018,08,08,12,55,32.70
2018,08,08,12,56,32.80
2018,08,08,12,58,32.90
2018,08,08,12,59,32.90
2018,08,08,13,01,33.20
2018,08,08,13,03,33.20
2018,08,08,13,05,33.30
2018,08,08,13,07,33.40
2018,08,08,13,10,33.70
2018,08,08,13,11,33.70
2018,08,08,13,12,33.80
2018,08,08,13,15,33.90
2018,08,08,13,16,33.90
2018,08,08,13,18,34.10
2018,08,08,13,20,34.10
2018,08,08,13,21,34.10
2018,08,08,13,22,34.10
2018,08,08,13,24,34.10
2018,08,08,13,25,34.10
2018,08,08,13,26,34.10
2018,08,08,13,27,34.10
2018,08,08,13,28,34.10
2018,08,08,13,31,34.10
2018,08,08,13,33,33.90
2018,08,08,13,34,33.70
2018,08,08,13,36,33.70
2018,08,08,13,38,33.60
2018,08,08,13,39,33.50
2018,08,08,13,41,33.60
2018,08,08,13,43,33.60
2018,08,08,13,46,33.60
2018,08,08,13,47,33.60
2018,08,08,13,49,33.60
2018,08,08,13,50,33.70
2018,08,08,13,52,33.70
2018,08,08,13,53,33.80
2018,08,08,13,54,33.80
2018,08,08,13,55,33.90
2018,08,08,13,57,33.90
2018,08,08,13,59,34.00
2018,08,08,14,00,34.00
2018,08,08,14,02,33.90
2018,08,08,14,03,33.90
2018,08,08,14,05,33.90
2018,08,08,14,08,34.10
2018,08,08,14,10,34.20
2018,08,08,14,11,34.30
2018,08,08,14,13,34.30
2018,08,08,14,15,34.50
2018,08,08,14,16,34.60
2018,08,08,14,19,34.60
2018,08,08,14,20,34.70
2018,08,08,14,21,34.70
2018,08,08,14,22,34.80
2018,08,08,14,24,34.80
2018,08,08,14,25,35.00
2018,08,08,14,27,35.20
2018,08,08,14,29,35.20
2018,08,08,14,30,35.30
2018,08,08,14,33,35.40
2018,08,08,14,35,35.40
2018,08,08,14,36,35.30
2018,08,08,14,38,35.20
2018,08,08,14,40,35.10
2018,08,08,14,41,35.00
2018,08,08,14,44,35.00
2018,08,08,14,45,35.00
2018,08,08,14,47,35.00
2018,08,08,14,49,35.10
2018,08,08,14,50,35.10
2018,08,08,14,52,35.10
2018,08,08,14,54,35.10
2018,08,08,14,55,35.10
2018,08,08,14,56,35.20
2018,08,08,14,58,35.20
2018,08,08,15,00,35.20
2018,08,08,15,01,35.20
2018,08,08,15,03,35.20
2018,08,08,15,04,35.20
2018,08,08,15,05,35.20
2018,08,08,15,07,35.20
2018,08,08,15,09,35.20
2018,08,08,15,10,35.20
2018,08,08,15,12,35.20
2018,08,08,15,13,35.30
2018,08,08,15,14,35.30
2018,08,08,15,16,35.20
2018,08,08,15,18,35.30
2018,08,08,15,19,35.30
2018,08,08,15,20,35.40
2018,08,08,15,21,35.40
2018,08,08,15,22,35.50
2018,08,08,15,23,35.50
2018,08,08,15,24,35.50
2018,08,08,15,25,35.50
2018,08,08,15,28,35.50
2018,08,08,15,30,35.50
2018,08,08,15,31,35.50
2018,08,08,15,33,35.50
2018,08,08,15,34,35.40
2018,08,08,15,35,35.40
2018,08,08,15,36,35.40
2018,08,08,15,37,35.40
2018,08,08,15,39,35.40
2018,08,08,15,41,35.40
2018,08,08,15,43,35.40
2018,08,08,15,44,35.50
2018,08,08,15,46,35.60
2018,08,08,15,48,35.50
2018,08,08,15,49,35.50
2018,08,08,15,50,35.50
2018,08,08,15,52,35.50
2018,08,08,15,54,35.60
2018,08,08,15,55,35.70
2018,08,08,15,57,35.70
2018,08,08,15,59,35.80
2018,08,08,16,00,35.90
2018,08,08,16,01,35.90
2018,08,08,16,03,36.00
2018,08,08,16,04,36.10
2018,08,08,16,05,36.10
2018,08,08,16,07,35.90
2018,08,08,16,09,35.90
2018,08,08,16,11,35.90
2018,08,08,16,12,35.90
2018,08,08,16,13,35.90
2018,08,08,16,14,35.90
2018,08,08,16,16,36.00
2018,08,08,16,18,36.00
2018,08,08,16,19,36.00
2018,08,08,16,21,36.10
2018,08,08,16,23,36.10
2018,08,08,16,24,36.00
2018,08,08,16,26,36.00
2018,08,08,16,27,36.00
2018,08,08,16,28,35.90
2018,08,08,16,30,35.90
2018,08,08,16,31,35.90
2018,08,08,16,32,35.80
2018,08,08,16,34,35.90
2018,08,08,16,35,35.90
2018,08,08,16,37,35.90
2018,08,08,16,38,35.90
2018,08,08,16,39,35.90
2018,08,08,16,40,35.80
2018,08,08,16,41,35.80
2018,08,08,16,42,35.80
2018,08,08,16,43,35.70
2018,08,08,16,45,35.60
2018,08,08,16,46,35.60
2018,08,08,16,48,35.40
2018,08,08,16,50,35.40
2018,08,08,16,51,35.40
2018,08,08,16,52,35.40
2018,08,08,16,53,35.30
2018,08,08,16,54,35.30
2018,08,08,16,56,35.20
2018,08,08,16,58,35.10
2018,08,08,17,00,34.80
2018,08,08,17,02,34.80
2018,08,08,17,03,34.70
2018,08,08,17,04,34.60
2018,08,08,17,05,34.60
2018,08,08,17,06,34.60
2018,08,08,17,07,34.50
2018,08,08,17,08,34.40
2018,08,08,17,09,34.40
2018,08,08,17,11,34.40
2018,08,08,17,13,34.20
2018,08,08,17,15,34.10
2018,08,08,17,16,34.10
2018,08,08,17,17,34.10
2018,08,08,17,19,33.90
2018,08,08,17,20,33.90
2018,08,08,17,21,33.80
2018,08,08,17,22,33.80
2018,08,08,17,23,33.70
2018,08,08,17,24,33.70
2018,08,08,17,25,33.70
2018,08,08,17,27,33.70
2018,08,08,17,28,33.60
2018,08,08,17,29,33.60
2018,08,08,17,30,33.60
2018,08,08,17,31,33.50
2018,08,08,17,33,33.40
2018,08,08,17,35,33.30
2018,08,08,17,36,33.30
2018,08,08,17,37,33.30
2018,08,08,17,38,33.30
2018,08,08,17,39,33.30
2018,08,08,17,40,33.30
2018,08,08,17,41,33.30
2018,08,08,17,42,33.30
2018,08,08,17,43,33.30
2018,08,08,17,44,33.30
2018,08,08,17,45,33.30
2018,08,08,17,46,33.20
2018,08,08,17,47,33.20
2018,08,08,17,48,33.20
2018,08,08,17,49,33.20
2018,08,08,17,50,33.10
2018,08,08,17,51,33.10
2018,08,08,17,52,32.90
2018,08,08,17,53,32.90
2018,08,08,17,54,32.80
2018,08,08,17,55,32.80
2018,08,08,17,56,32.80
2018,08,08,17,57,32.80
2018,08,08,17,58,32.80
2018,08,08,17,59,32.70
2018,08,08,18,00,32.70
2018,08,08,18,01,32.70
2018,08,08,18,02,32.60
2018,08,08,18,03,32.60
2018,08,08,18,04,32.60
2018,08,08,18,06,32.50
2018,08,08,18,07,32.50
2018,08,08,18,09,32.40
2018,08,08,18,10,32.40
2018,08,08,18,11,32.40
2018,08,08,18,12,32.40
2018,08,08,18,13,32.40
2018,08,08,18,14,32.30
2018,08,08,18,15,32.30
2018,08,08,18,17,32.20
2018,08,08,18,19,32.10
2018,08,08,18,20,32.10
2018,08,08,18,21,32.10
2018,08,08,18,22,32.00
2018,08,08,18,23,32.00
2018,08,08,18,24,31.90
2018,08,08,18,25,31.90
2018,08,08,18,26,31.90
2018,08,08,18,27,31.90
2018,08,08,18,28,31.90
2018,08,08,18,29,31.90
2018,08,08,18,30,31.80
2018,08,08,18,32,31.80
2018,08,08,18,33,31.80
2018,08,08,18,34,31.80
2018,08,08,18,35,31.80
2018,08,08,18,36,31.70
2018,08,08,18,37,31.70
2018,08,08,18,39,31.70
2018,08,08,18,40,31.60
2018,08,08,18,41,31.60
2018,08,08,18,42,31.60
2018,08,08,18,44,31.50
2018,08,08,18,45,31.50
2018,08,08,18,46,31.40
2018,08,08,18,47,31.40
2018,08,08,18,49,31.40
2018,08,08,18,50,31.30
2018,08,08,18,52,31.30
2018,08,08,18,54,31.20
2018,08,08,18,55,31.20
2018,08,08,18,56,31.20
2018,08,08,18,57,31.20
2018,08,08,18,58,31.20
2018,08,08,18,59,31.10
2018,08,08,19,00,31.10
2018,08,08,19,01,31.10
2018,08,08,19,03,30.90
2018,08,08,19,04,30.90
2018,08,08,19,05,30.90
2018,08,08,19,06,30.90
2018,08,08,19,07,30.80
2018,08,08,19,08,30.80
2018,08,08,19,09,30.80
2018,08,08,19,10,30.80
2018,08,08,19,12,30.80
2018,08,08,19,13,30.70
2018,08,08,19,14,30.70
2018,08,08,19,15,30.70
2018,08,08,19,16,30.70
2018,08,08,19,17,30.70
2018,08,08,19,19,30.60
2018,08,08,19,20,30.60
2018,08,08,19,21,30.60
2018,08,08,19,23,30.60
2018,08,08,19,24,30.50
2018,08,08,19,25,30.50
2018,08,08,19,26,30.50
2018,08,08,19,28,30.50
2018,08,08,19,29,30.50
2018,08,08,19,30,30.50
2018,08,08,19,31,30.50
2018,08,08,19,32,30.40
2018,08,08,19,34,30.40
2018,08,08,19,35,30.50
2018,08,08,19,36,30.50
2018,08,08,19,37,30.60
2018,08,08,19,38,30.60
2018,08,08,19,39,30.60
2018,08,08,19,40,30.70
2018,08,08,19,41,30.70
2018,08,08,19,42,30.80
2018,08,08,19,43,30.80
2018,08,08,19,44,30.80
2018,08,08,19,45,30.80
2018,08,08,19,47,30.90
2018,08,08,19,50,30.90
2018,08,08,19,51,30.90
2018,08,08,19,52,30.90
2018,08,08,19,54,30.90
2018,08,08,19,56,30.80
2018,08,08,19,57,30.80
2018,08,08,19,58,30.80
2018,08,08,19,59,30.80
2018,08,08,20,01,30.80
2018,08,08,20,02,30.80
2018,08,08,20,03,30.70
2018,08,08,20,04,30.70
2018,08,08,20,05,30.70
2018,08,08,20,06,30.70
2018,08,08,20,07,30.70
2018,08,08,20,09,30.60
2018,08,08,20,10,30.60
2018,08,08,20,11,30.60
2018,08,08,20,13,30.50
2018,08,08,20,15,30.40
2018,08,08,20,16,30.30
2018,08,08,20,17,30.30
2018,08,08,20,18,30.20
2018,08,08,20,19,30.20
2018,08,08,20,20,30.20
2018,08,08,20,22,30.10
2018,08,08,20,23,30.00
2018,08,08,20,24,29.90
2018,08,08,20,25,29.90
2018,08,08,20,27,29.80
2018,08,08,20,29,29.70
2018,08,08,20,30,29.70
2018,08,08,20,32,29.60
2018,08,08,20,34,29.40
2018,08,08,20,35,29.40
2018,08,08,20,36,29.30
2018,08,08,20,37,29.30
2018,08,08,20,38,29.20
2018,08,08,20,40,29.10
2018,08,08,20,41,29.10
2018,08,08,20,42,28.90
2018,08,08,20,44,28.90
2018,08,08,20,45,28.80
2018,08,08,20,46,28.80
2018,08,08,20,47,28.70
2018,08,08,20,48,28.60
2018,08,08,20,49,28.60
2018,08,08,20,50,28.50
2018,08,08,20,52,28.40
2018,08,08,20,53,28.30
2018,08,08,20,54,28.20
2018,08,08,20,55,28.10
2018,08,08,20,56,28.10
2018,08,08,20,57,27.90
2018,08,08,20,58,27.90
2018,08,08,20,59,27.80
2018,08,08,21,00,27.80
2018,08,08,21,02,27.60
2018,08,08,21,03,27.60
2018,08,08,21,05,27.40
2018,08,08,21,07,27.30
2018,08,08,21,09,27.30
2018,08,08,21,10,27.20
2018,08,08,21,11,27.20
2018,08,08,21,12,27.10
2018,08,08,21,13,27.10
2018,08,08,21,14,27.10
2018,08,08,21,15,27.00
2018,08,08,21,16,26.90
2018,08,08,21,18,26.90
2018,08,08,21,20,26.90
2018,08,08,21,21,26.90
2018,08,08,21,23,26.80
2018,08,08,21,24,26.80
2018,08,08,21,25,26.80
2018,08,08,21,27,26.70
2018,08,08,21,28,26.70
2018,08,08,21,30,26.70
2018,08,08,21,31,26.70
2018,08,08,21,32,26.70
2018,08,08,21,34,26.60
2018,08,08,21,35,26.60
2018,08,08,21,36,26.60
2018,08,08,21,37,26.50
2018,08,08,21,38,26.50
2018,08,08,21,39,26.40
2018,08,08,21,41,26.40
2018,08,08,21,42,26.40
2018,08,08,21,43,26.30
2018,08,08,21,44,26.30
2018,08,08,21,45,26.20
2018,08,08,21,46,26.20
2018,08,08,21,47,26.20
2018,08,08,21,48,26.10
2018,08,08,21,50,26.10
2018,08,08,21,51,26.00
2018,08,08,21,52,25.90
2018,08,08,21,53,25.90
2018,08,08,21,54,25.80
2018,08,08,21,55,25.80
2018,08,08,21,57,25.80
2018,08,08,21,58,25.70
2018,08,08,21,59,25.70
2018,08,08,22,00,25.70
2018,08,08,22,01,25.70
2018,08,08,22,02,25.60
2018,08,08,22,03,25.60
2018,08,08,22,04,25.60
2018,08,08,22,05,25.50
2018,08,08,22,06,25.40
2018,08,08,22,07,25.40
2018,08,08,22,08,25.40
2018,08,08,22,09,25.30
2018,08,08,22,11,25.30
2018,08,08,22,12,25.30
2018,08,08,22,13,25.20
2018,08,08,22,14,25.20
2018,08,08,22,15,25.20
2018,08,08,22,16,25.10
2018,08,08,22,18,25.10
2018,08,08,22,20,25.00
2018,08,08,22,21,25.00
2018,08,08,22,22,24.90
2018,08,08,22,23,24.90
2018,08,08,22,24,24.90
2018,08,08,22,25,24.90
2018,08,08,22,26,24.80
2018,08,08,22,27,24.80
2018,08,08,22,28,24.80
2018,08,08,22,29,24.80
2018,08,08,22,30,24.70
2018,08,08,22,31,24.70
2018,08,08,22,33,24.70
2018,08,08,22,35,24.60
2018,08,08,22,36,24.60
2018,08,08,22,37,24.60
2018,08,08,22,38,24.60
2018,08,08,22,39,24.60
2018,08,08,22,40,24.50
2018,08,08,22,41,24.50
2018,08,08,22,42,24.40
2018,08,08,22,43,24.40